JST478 YSSY-YSCB

Flight info

Callsign JST478
Flight time 0h 36m
Altitude 16000
Route WOL H65 CB
Aircraft A20N/M-SDE2E3FGHIRWXY/LB1

Departure

Time 2026-05-04 06:40
Airport Sydney Kingsford Smith International Airport (YSSY)

Arrival

Time 2026-05-04 07:16
Airport Canberra Airport (YSCB)
Time Latitude Longitude Altitude Speed Heading
2026-05-04 06:20 -33.93525 151.17777 30 ft 0 kts 279°
2026-05-04 06:25 -33.93527 151.17805 30 ft 2 kts 272°
2026-05-04 06:25 -33.93527 151.17824 30 ft 2 kts 250°
2026-05-04 06:26 -33.93517 151.17839 30 ft 2 kts 198°
2026-05-04 06:26 -33.93509 151.17842 30 ft 0 kts 192°
2026-05-04 06:26 -33.93513 151.17841 30 ft 2 kts 192°
2026-05-04 06:28 -33.93519 151.17839 30 ft 4 kts 191°
2026-05-04 06:28 -33.93589 151.17825 30 ft 18 kts 191°
2026-05-04 06:29 -33.93717 151.17800 30 ft 21 kts 190°
2026-05-04 06:29 -33.93868 151.17773 20 ft 22 kts 173°
2026-05-04 06:29 -33.93983 151.17802 24 ft 17 kts 167°
2026-05-04 06:29 -33.94105 151.17833 24 ft 20 kts 167°
2026-05-04 06:30 -33.94233 151.17867 25 ft 18 kts 167°
2026-05-04 06:30 -33.94364 151.17900 24 ft 21 kts 165°
2026-05-04 06:30 -33.94470 151.17898 25 ft 13 kts 210°
2026-05-04 06:30 -33.94568 151.17895 27 ft 15 kts 167°
2026-05-04 06:31 -33.94682 151.17924 24 ft 18 kts 168°
2026-05-04 06:31 -33.94794 151.17954 20 ft 18 kts 168°
2026-05-04 06:31 -33.94928 151.17988 22 ft 21 kts 168°
2026-05-04 06:31 -33.95031 151.18015 27 ft 10 kts 167°
2026-05-04 06:32 -33.95097 151.18058 27 ft 13 kts 118°
2026-05-04 06:33 -33.95451 151.18757 22 ft 18 kts 168°
2026-05-04 06:34 -33.95553 151.18784 23 ft 11 kts 167°
2026-05-04 06:34 -33.95626 151.18804 26 ft 12 kts 167°
2026-05-04 06:34 -33.95718 151.18827 27 ft 16 kts 167°
2026-05-04 06:34 -33.95893 151.18872 27 ft 31 kts 168°
2026-05-04 06:35 -33.96111 151.18928 27 ft 30 kts 168°
2026-05-04 06:36 -33.97122 151.19266 20 ft 0 kts 78°
2026-05-04 06:37 -33.97121 151.19270 22 ft 2 kts 77°
2026-05-04 06:38 -33.97115 151.19299 21 ft 7 kts 76°
2026-05-04 06:38 -33.97063 151.19373 21 ft 14 kts
2026-05-04 06:40 -33.95068 151.18862 544 ft 159 kts 352°
2026-05-04 06:40 -33.93990 151.19021 1473 ft 159 kts 28°
2026-05-04 06:40 -33.93266 151.20094 2352 ft 182 kts 65°
2026-05-04 06:40 -33.93076 151.21688 3134 ft 205 kts 84°
2026-05-04 06:41 -33.93217 151.23515 3769 ft 232 kts 92°
2026-05-04 06:41 -33.93416 151.25542 4385 ft 257 kts 91°
2026-05-04 06:41 -33.93532 151.27753 5088 ft 279 kts 88°
2026-05-04 06:41 -33.93561 151.30190 5939 ft 292 kts 86°
2026-05-04 06:42 -33.93535 151.32653 6965 ft 296 kts 85°
2026-05-04 06:42 -33.93486 151.35115 8015 ft 298 kts 84°
2026-05-04 06:42 -33.93427 151.37630 9060 ft 303 kts 85°
2026-05-04 06:44 -34.05220 151.41554 12249 ft 341 kts 246°
2026-05-04 06:44 -34.06242 151.38970 13082 ft 343 kts 250°
2026-05-04 06:44 -34.07385 151.36408 13874 ft 351 kts 243°
2026-05-04 06:45 -34.08832 151.33998 14615 ft 358 kts 236°
2026-05-04 06:45 -34.10505 151.31740 15331 ft 365 kts 232°
2026-05-04 06:45 -34.12307 151.29552 15478 ft 367 kts 229°
2026-05-04 06:45 -34.14160 151.27421 15584 ft 368 kts 228°
2026-05-04 06:46 -34.16037 151.25303 15696 ft 370 kts 228°
2026-05-04 06:46 -34.17919 151.23173 15835 ft 369 kts 229°
2026-05-04 06:46 -34.19795 151.21031 15965 ft 371 kts 229°
2026-05-04 06:46 -34.21668 151.18876 16004 ft 372 kts 229°
2026-05-04 06:48 -34.36520 151.01647 15990 ft 446 kts 228°
2026-05-04 06:48 -34.38757 150.99045 15991 ft 446 kts 228°
2026-05-04 06:49 -34.40996 150.96439 15990 ft 446 kts 228°
2026-05-04 06:50 -34.56458 150.78015 15983 ft 442 kts 236°
2026-05-04 06:51 -34.58282 150.75024 15992 ft 441 kts 239°
2026-05-04 06:51 -34.60082 150.72028 15959 ft 437 kts 238°
2026-05-04 06:51 -34.61862 150.69082 15880 ft 426 kts 238°
2026-05-04 06:51 -34.63571 150.66261 15727 ft 412 kts 239°
2026-05-04 06:52 -34.65231 150.63516 15561 ft 395 kts 239°
2026-05-04 06:52 -34.66834 150.60858 15187 ft 385 kts 239°
2026-05-04 06:52 -34.68395 150.58259 14854 ft 374 kts 239°
2026-05-04 06:52 -34.69904 150.55744 14619 ft 362 kts 239°
2026-05-04 06:53 -34.71370 150.53298 14378 ft 354 kts 240°
2026-05-04 06:53 -34.72802 150.50900 14153 ft 356 kts 240°
2026-05-04 06:53 -34.74262 150.48455 13918 ft 355 kts 240°
2026-05-04 06:53 -34.75711 150.46032 13694 ft 354 kts 240°
2026-05-04 06:54 -34.77157 150.43614 13421 ft 351 kts 239°
2026-05-04 06:54 -34.78586 150.41227 13168 ft 347 kts 240°
2026-05-04 06:54 -34.80011 150.38838 13044 ft 351 kts 240°
2026-05-04 06:54 -34.81445 150.36423 12989 ft 351 kts 240°
2026-05-04 06:55 -34.82876 150.34024 12982 ft 350 kts 240°
2026-05-04 06:55 -34.84288 150.31660 12987 ft 349 kts 239°
2026-05-04 06:55 -34.85719 150.29264 12986 ft 350 kts 240°
2026-05-04 06:55 -34.87152 150.26861 12985 ft 351 kts 240°
2026-05-04 06:56 -34.88585 150.24451 12981 ft 350 kts 240°
2026-05-04 06:57 -34.98046 150.08525 11620 ft 343 kts 240°
2026-05-04 06:58 -34.99416 150.06207 11377 ft 340 kts 240°
2026-05-04 06:58 -35.00801 150.03862 11142 ft 339 kts 240°
2026-05-04 06:58 -35.02626 150.00772 10817 ft 337 kts 240°
2026-05-04 06:58 -35.03555 149.99203 10656 ft 336 kts 240°
2026-05-04 06:59 -35.04919 149.96896 10415 ft 334 kts 240°
2026-05-04 06:59 -35.06407 149.94756 10253 ft 333 kts 232°
2026-05-04 06:59 -35.07984 149.92753 10164 ft 321 kts 233°
2026-05-04 06:59 -35.09497 149.90817 10064 ft 308 kts 233°
2026-05-04 07:01 -35.19179 149.78294 9035 ft 285 kts 235°
2026-05-04 07:01 -35.20540 149.76532 8910 ft 284 kts 235°
2026-05-04 07:02 -35.21894 149.74778 8779 ft 283 kts 235°
2026-05-04 07:02 -35.23244 149.73030 8654 ft 283 kts 235°
2026-05-04 07:02 -35.24574 149.71307 8534 ft 282 kts 235°
2026-05-04 07:02 -35.25919 149.69561 8404 ft 280 kts 235°
2026-05-04 07:03 -35.27259 149.67822 8273 ft 280 kts 235°
2026-05-04 07:03 -35.28592 149.66090 8150 ft 279 kts 235°
2026-05-04 07:03 -35.29929 149.64354 8034 ft 279 kts 235°
2026-05-04 07:03 -35.31264 149.62618 7917 ft 278 kts 235°
2026-05-04 07:04 -35.32587 149.60901 7786 ft 276 kts 235°
2026-05-04 07:04 -35.33909 149.59180 7680 ft 277 kts 235°
2026-05-04 07:04 -35.35210 149.57485 7557 ft 274 kts 235°
2026-05-04 07:04 -35.36517 149.55784 7443 ft 274 kts 235°
2026-05-04 07:05 -35.37831 149.54088 7332 ft 274 kts 235°
2026-05-04 07:05 -35.39133 149.52391 7207 ft 273 kts 235°
2026-05-04 07:05 -35.40422 149.50695 7075 ft 271 kts 235°
2026-05-04 07:05 -35.41708 149.49005 6944 ft 270 kts 235°
2026-05-04 07:06 -35.44308 149.45616 6731 ft 272 kts 235°
2026-05-04 07:06 -35.45587 149.43954 6615 ft 267 kts 235°
2026-05-04 07:06 -35.46863 149.42284 6503 ft 268 kts 235°
2026-05-04 07:07 -35.48139 149.40613 6367 ft 266 kts 236°
2026-05-04 07:08 -35.55585 149.28412 5583 ft 242 kts 268°
2026-05-04 07:09 -35.55795 149.26410 5476 ft 229 kts 266°
2026-05-04 07:09 -35.56008 149.24529 5388 ft 220 kts 266°
2026-05-04 07:09 -35.56100 149.22783 5363 ft 189 kts 282°
2026-05-04 07:09 -35.55605 149.21267 5369 ft 195 kts 307°
2026-05-04 07:10 -35.54554 149.20229 5371 ft 199 kts 332°
2026-05-04 07:10 -35.53218 149.19675 5364 ft 203 kts 342°
2026-05-04 07:12 -35.45054 149.19446 4620 ft 160 kts 352°
2026-05-04 07:12 -35.43942 149.19445 4401 ft 160 kts 353°
2026-05-04 07:12 -35.42828 149.19442 4186 ft 160 kts 354°
2026-05-04 07:12 -35.41713 149.19444 3959 ft 156 kts 354°
2026-05-04 07:13 -35.40614 149.19443 3768 ft 159 kts 355°
2026-05-04 07:13 -35.39574 149.19447 3546 ft 140 kts 356°
2026-05-04 07:13 -35.38659 149.19447 3347 ft 123 kts 356°
2026-05-04 07:14 -35.35350 149.19512 2947 ft 125 kts 353°
2026-05-04 07:14 -35.34471 149.19468 2778 ft 122 kts 354°
2026-05-04 07:15 -35.33641 149.19457 2499 ft 119 kts 355°
2026-05-04 07:15 -35.32795 149.19453 2302 ft 125 kts 356°
2026-05-04 07:15 -35.31908 149.19448 2011 ft 127 kts 356°
2026-05-04 07:15 -35.31058 149.19441 1881 ft 113 kts 358°
2026-05-04 07:16 -35.30462 149.19444 1879 ft 57 kts
2026-05-04 07:16 -35.30266 149.19444 1878 ft 10 kts
2026-05-04 07:16 -35.30183 149.19403 1876 ft 16 kts 297°
2026-05-04 07:16 -35.30164 149.19269 1875 ft 9 kts 252°
2026-05-04 07:17 -35.30198 149.19240 1876 ft 7 kts 185°
2026-05-04 07:17 -35.30252 149.19239 1876 ft 9 kts 178°
2026-05-04 07:17 -35.30421 149.19239 1878 ft 35 kts 180°
2026-05-04 07:17 -35.30617 149.19240 1883 ft 17 kts 181°
2026-05-04 07:18 -35.30750 149.19240 1884 ft 19 kts 181°
2026-05-04 07:18 -35.30834 149.19234 1883 ft 1 kts 207°
2026-05-04 07:18 -35.30827 149.19174 1878 ft 9 kts 291°